Кочмес

Россия / Республика Коми     66°21′35″N   60°00′52″E
темп.,
°C
ветер,
м/с
пор.,
м/с
влажн.,
%
обл.,
%
осадки,
мм/ч
давл.,
гПа
погр.,
м
26 октября, вт
вт2600:00−11з448960 0.0 100941
03:00−10юз468899 0.0 100973
06:00−8зюз5989100 0.1 1008169
09:00−7зюз6118490 0.1 1008329
12:00−6з61286100 0.1 1008386
15:00−7з6118922 0.1 1008206
18:00−7з610895 0.0 1008177
21:00−8зсз6109077 0.0 1009169
27 октября, ср
ср2700:00−10зсз45915 0.0 101049
03:00−12зюз339659 0.0 101018
06:00−12юз339799 0.0 101131
09:00−10зюз349374 0.0 101196
12:00−8ююз119365 0.0 101114
15:00−11всв2297100 0.0 101013
18:00−9всв4793100 0.0 100887
21:00−9всв61087100 0.0 1005191
28 октября, чт
чт2800:00−7всв61086100 0.0 1003201
03:00−7всв71094100 0.1 1001302
06:00−8всв81295100 0.9 999322
09:00−8всв101494100 1.8 999495
12:00−7всв101494100 1.2 999693
15:00−8св101594100 2.7 1001513
18:00−9ссв91584100 0.7 1003400
21:00−10с71376100 0.7 1005268
29 октября, пт
пт2900:00−12с610730 0.0 1007129
03:00−13ссз46800 0.0 101050
06:00−16сз229246 0.0 101211
09:00−14з119736 0.0 101418
12:00−11зюз229382 0.0 101619
15:00−12зюз2296100 0.0 101810
18:00−13юз339851 0.0 101716
21:00−13юз459779 0.0 101654
30 октября, сб
сб3000:00−12юз4796100 0.0 101574
03:00−10ююз4695100 0.1 101487
06:00−8юв3496100 0.5 1012105
09:00−7юв4696100 1.2 1012257
12:00−6ююв229551 0.2 101375
15:00−12в0110045 0.2 101510
18:00−15ю1110083 0.0 10159
21:00−16ююз22100100 0.0 101710